Tracking 27112 objects as of 27-Mar-2023
HD Live streaming from Space Station
objects crossing your sky now

STARLINK-3698

Track STARLINK-3698 now!
10-day predictions
STARLINK-3698 is classified as:


NORAD ID: 52108
Int'l Code: 2022-029W
Perigee: 545.9 km
Apogee: 547.9 km
Inclination: 53.2 °
Period: 95.4 minutes
Semi major axis: 6917 km
RCS: Unknown
Launch date: March 19, 2022
Source: United States (US)
Launch site: AIR FORCE EASTERN TEST RANGE (AFETR)
Your satellite tracking list
Your tracking list is empty




NASA's NSSDC Master Catalog

Two Line Element Set (TLE):
1 52108U 22029W   23085.71545777  .00009657  00000-0  62415-3 0  9990
2 52108  53.2156 242.8257 0001465  73.5291 286.5862 15.08831899 57891
Source of the keplerian elements: AFSPC